Starlink 32908

operational
NORAD ID: 63084 Int'l Des: 2025-037 Owner: SPXS Country: US Constellation: starlink
LEOCIRCULAR

About Starlink 32908

Description loading...

Live Position

Loading 3D Globe...

Upcoming Passes

Altitude History

Altitude vs Time

uPlot chart will show altitude changes over time

Two-Line Element Set

1 63084U 25037H 25305.45206144 .00005332 00000-0 45411-3 0 9990
2 63084 70.0006 317.7729 0003612 268.9796 91.0950 14.98347700 39257
Epoch: Nov 1, 2025 • Age: 23 hours

Current Status

Altitude 574.0 km
Velocity 7.57 km/s
Sub-Earth Point 6.71°N, 59.78°W
Launch Date Feb 23, 2025
Age 0.6 years
Type internet

Technical Details

Classification Payload
Mass 730.00 kg
Dry Mass 700.00 kg
Total Mass 730.00 kg
Length 0.30 m
Diameter 4.10 m
Span 29.00 m
Shape Box + pan
Manufacturer SPXS
Bus Type Starlink V2M
Phase Status In Orbit
Owner/State SPXS/US

Large Constellations

Loading constellations...